Location: Spruce Knob
(38.6995°N, 79.5330°W)
Time: 09:57:03
(UTC-05:00)

Envisat - Visible Passes

Search period start: 28 November 2021 00:00
Search period end: 08 December 2021 00:00
Orbit: 764 x 766 km, 98.2° (Epoch: 28 November)

Date Brightness Start Highest point End Pass type
(mag) Time Alt. Az. Time Alt. Az. Time Alt. Az.
28 Nov 5.3 04:21:06 10° NE 04:25:01 22° E 04:28:55 10° SE visible
28 Nov 3.4 05:59:26 10° N 06:04:08 39° WNW 06:08:49 10° SW visible
29 Nov 2.9 05:22:18 10° NNE 05:27:24 89° WNW 05:32:29 10° SSW visible
30 Nov 4.3 04:45:44 10° NNE 04:50:29 39° E 04:55:12 10° SSE visible
30 Nov 4.0 06:25:18 10° NNW 06:29:14 23° WNW 06:33:09 10° WSW visible
30 Nov 5.9 17:39:13 10° SW 17:42:48 19° W 17:46:24 10° NW visible
01 Dec 5.6 04:10:03 10° NE 04:13:22 17° E 04:16:40 10° SE visible
01 Dec 3.1 05:47:44 10° N 05:52:38 50° WNW 05:57:31 10° SSW visible
02 Dec 3.2 05:10:46 10° NNE 05:15:51 71° ESE 05:20:54 10° S visible
02 Dec 6.5 18:07:52 10° W 18:08:23 10° W 18:08:55 10° W visible
03 Dec 4.7 04:34:24 10° NE 04:38:52 31° E 04:43:19 10° SSE visible
03 Dec 3.8 06:13:27 10° N 06:17:47 29° WNW 06:22:05 10° SW visible
03 Dec 5.6 17:27:03 10° SSW 17:31:10 25° W 17:35:17 10° NW visible
04 Dec 5.9 03:59:20 10° ENE 04:01:42 13° E 04:04:03 10° ESE visible
04 Dec 2.9 05:36:06 10° N 05:41:08 65° WNW 05:46:08 10° SSW visible
05 Dec 3.6 04:59:18 10° NNE 05:04:16 55° E 05:09:14 10° S visible
05 Dec 4.4 06:39:36 10° NNW 06:42:49 17° WNW 06:46:02 10° WSW visible
05 Dec 6.1 17:54:12 10° WSW 17:56:42 14° W 17:59:13 10° WNW visible
06 Dec 5.1 04:23:10 10° NE 04:27:14 24° E 04:31:17 10° SSE visible
06 Dec 3.5 06:01:41 10° N 06:06:18 37° WNW 06:10:55 10° SW visible
07 Dec 2.8 05:24:30 10° N 05:29:36 83° WNW 05:34:40 10° SSW visible
